KDTW

Detroit/Metropolitan Wayne County

Airport
ICAO code
KDTW
Summary
ICAO Region
NAM
ICAO Territory
Location

Romulus, Detroit, Michigan,

Elevation
645 ft
Coordinates
42° 12' 45" N , 83° 21' 12" W
KCC
Metar
Observation
KDTW 081953Z 02005KT 10SM FEW020 OVC033 06/M03 A3033 RMK AO2 SLP276 T00561028 PNO
Station
Detroit, Detroit Metropolitan Wayne County Airport
Date/Time
2022-12-08 19:53:00
Wind direction
20°
Wind speed
05 kts
Lowest cloud amount
few clouds
Temperature
5.6°C
Dew point
-2.8°C
Humidity
54%
Weather condition
n/a

Description

Detroit Metropolitan Wayne County Airport, usually called Detroit Metro Airport, Metro Airport locally, or simply DTW, is a major international airport in Romulus, Michigan, a suburb of Detroit.

Climatology

Humid continental climate (Köppen climate classification Dfa) - characterized by four seasons: cold, windy, snowy winters, mild springs, hot, humid summers, and crisp and relatively short autumns. Precipitation reaches its lowest in January and February and peaks in summer and latter half of spring.

Airport map

Aerial View

SKYbrary Partners:

Safety knowledge contributed by: